Change the Weather History Date:

Monday, May 14, 2012

  Actual Average Record
Temperature  
Mean Temperature 65 °F 58 °F  
Max Temperature 88 °F 72 °F 94 °F (1931)
Min Temperature 42 °F 44 °F 30 °F (1964)
Degree Days  
Heating Degree Days 0 8  
Month to date heating degree days 182 137  
Since 1 July heating degree days 6466 6176  
Cooling Degree Days 0 1  
Month to date cooling degree days 0 4  
Year to date cooling degree days 2 5  
Growing Degree Days 14 (Base 50)    
Moisture  
Dew Point 38 °F    
Average Humidity 46    
Maximum Humidity 76    
Minimum Humidity 16    
Precipitation  
Precipitation 0.00 in 0.05 in 0.30 in (1943)
Month to date precipitation 0.35 0.56  
Year to date precipitation 5.61 5.77  
Sea Level Pressure  
Sea Level Pressure 30.02 in    
Wind  
Wind Speed 6 mph (WNW)    
Max Wind Speed 10 mph    
Max Gust Speed 18 mph    
Visibility 10 miles    
Events      
T = Trace of Precipitation, MM = Missing Value Source: NWS Daily Summary

Daily Weather History Graph

Daily Weather History Graph

Search for Another Location

Airport or City:

Trip Planner

Search our weather history database for the weather conditions in past years. The results will help you decide how hot, cold, wet, or windy it might be!

Date:

Astronomy

May. 14, 2012 Rise Set
Actual Time 5:18 AM PDT 8:31 PM PDT
Civil Twilight 4:40 AM PDT 9:09 PM PDT
Nautical Twilight 3:51 AM PDT 9:58 PM PDT
Astronomical Twilight 2:49 AM PDT 11:01 PM PDT
Moon 2:22 AM PDT (5/14) 2:31 PM PDT (5/14)
Length of Visible Light 16h 28m
Length of Day
15h 13m
Waning Crescent, 31% of the Moon is Illuminated
May 14
Waning Crescent
May 20
New
May 28
First Quarter
Jun 4
Full
Jun 11
Last Quarter

Hourly Weather History & Observations

Time (PDT) Temp. Windchill Dew Point Humidity Pressure Visibility Wind Dir Wind Speed Gust Speed Precip Events Conditions
12:53 AM 52.0 °F - 37.0 °F 57% 30.07 in 10.0 mi WNW 6.9 mph - N/A   Clear
1:53 AM 52.0 °F - 36.0 °F 54% 30.08 in 10.0 mi WNW 6.9 mph - N/A   Clear
2:53 AM 48.9 °F - 35.1 °F 59% 30.09 in 10.0 mi NNW 3.5 mph - N/A   Clear
3:53 AM 46.0 °F 44.8 °F 36.0 °F 68% 30.10 in 10.0 mi NW 3.5 mph - N/A   Clear
4:53 AM 42.1 °F 40.2 °F 35.1 °F 76% 30.11 in 10.0 mi NW 3.5 mph - N/A   Clear
5:53 AM 46.0 °F 43.1 °F 36.0 °F 68% 30.12 in 10.0 mi NNW 5.8 mph - N/A   Clear
6:53 AM 55.0 °F - 37.9 °F 53% 30.13 in 10.0 mi NNE 6.9 mph - N/A   Clear
7:53 AM 60.1 °F - 37.0 °F 42% 30.12 in 10.0 mi North 8.1 mph - N/A   Clear
8:53 AM 64.9 °F - 37.9 °F 37% 30.12 in 10.0 mi NNE 6.9 mph - N/A   Clear
9:53 AM 69.1 °F - 36.0 °F 30% 30.10 in 10.0 mi NNE 8.1 mph - N/A   Clear
10:53 AM 73.9 °F - 37.0 °F 26% 30.08 in 10.0 mi NNE 8.1 mph - N/A   Clear
11:53 AM 78.1 °F - 37.0 °F 23% 30.06 in 10.0 mi East 4.6 mph - N/A   Clear
12:53 PM 80.1 °F - 37.9 °F 22% 30.04 in 10.0 mi Variable 5.8 mph - N/A   Clear
1:53 PM 84.0 °F - 37.9 °F 19% 30.01 in 10.0 mi South 4.6 mph - N/A   Clear
2:53 PM 84.9 °F - 36.0 °F 17% 29.98 in 10.0 mi SSW 6.9 mph - N/A   Clear
3:53 PM 87.1 °F - 36.0 °F 16% 29.96 in 10.0 mi SSW 8.1 mph - N/A   Clear
4:53 PM 87.1 °F - 36.0 °F 16% 29.94 in 10.0 mi SSW 10.4 mph - N/A   Clear
5:53 PM 87.1 °F - 37.9 °F 18% 29.92 in 10.0 mi SSW 6.9 mph - N/A   Clear
6:53 PM 84.9 °F - 39.0 °F 20% 29.91 in 10.0 mi SSW 6.9 mph - N/A   Clear
7:53 PM 80.1 °F - 44.1 °F 28% 29.90 in 10.0 mi South 4.6 mph - N/A   Clear
8:53 PM 68.0 °F - 45.0 °F 43% 29.92 in 10.0 mi Calm Calm - N/A   Clear
9:53 PM 68.0 °F - 42.1 °F 39% 29.93 in 10.0 mi West 6.9 mph - N/A   Clear
10:53 PM 66.9 °F - 39.9 °F 37% 29.94 in 10.0 mi West 8.1 mph - N/A   Clear
11:53 PM 63.0 °F - 37.9 °F 40% 29.94 in 10.0 mi WNW 9.2 mph - N/A   Clear